Date String (YYYY-MM-DD hh:mm:ss) UTC,Instrument flags,Ambient pressure (hPa),Sample flow (lpm),Bypass flow (lpm),Sample temperature (°C),Ambient temperature (°C),ASC tube jacket temperature (°C),LED temperature (°C),Box temperature (°C),Sample RH (%),Span deviation,Mass concentration (μg/m³),Mass concentration (μg/m³),Mass concentration (μg/m³)
DateTimeUTC,F1_M11,P_M11,Q1_M11,Q2_M11,T1_M11,T2_M11,T3_M11,T4_M11,T5_M11,U1_M11,ZSPAN_M11,X0_M11,X2_M11,X1_M11
2021-10-19 06:00:00,,0817.8,4.99,0.00,30.0,29.1,00.0,39.2,31.7,10.3,0000.0,0013.06,0003.87,0002.36
2021-10-19 06:01:00,,0817.9,5.00,0.00,30.0,29.1,00.0,39.2,31.7,10.3,0000.0,0012.26,0003.85,0002.35
2021-10-19 06:02:00,,0817.9,5.02,0.00,30.0,29.1,00.0,39.2,31.8,10.3,0000.0,0012.38,0003.83,0002.34
2021-10-19 06:03:00,,0817.9,5.00,0.00,30.1,29.1,00.0,39.2,31.7,10.4,0000.0,0012.30,0003.79,0002.33
2021-10-19 06:04:00,,0817.9,5.02,0.00,30.1,29.1,00.0,39.2,31.8,10.4,0000.0,0012.94,0003.78,0002.33
2021-10-19 06:05:00,,0817.9,4.99,0.00,30.1,29.1,00.0,39.2,31.8,10.5,0000.0,0013.40,0003.81,0002.34
2021-10-19 06:06:00,,0817.9,5.00,0.00,30.1,29.1,00.0,39.2,31.8,10.4,0000.0,0012.97,0003.79,0002.36
2021-10-19 06:07:00,,0817.9,5.00,0.00,30.1,29.1,00.0,39.2,31.8,10.5,0000.0,0012.75,0003.81,0002.36
2021-10-19 06:08:00,,0817.9,5.00,0.00,30.1,29.1,00.0,39.2,31.8,10.6,0000.0,0012.29,0003.78,0002.37
2021-10-19 06:09:00,,0817.9,5.02,0.00,30.1,29.1,00.0,39.2,31.8,10.7,0000.0,0013.19,0003.82,0002.38
2021-10-19 06:10:00,,0817.8,5.00,0.00,30.1,29.1,00.0,39.2,31.8,10.7,0000.0,0014.20,0003.82,0002.41
2021-10-19 06:11:00,,0817.9,5.00,0.00,30.1,29.1,00.0,39.2,31.8,10.8,0000.0,0013.50,0003.86,0002.41
2021-10-19 06:12:00,,0817.8,4.99,0.00,30.1,29.1,00.0,39.2,31.8,10.8,0000.0,0013.06,0003.88,0002.42
2021-10-19 06:13:00,,0817.8,5.00,0.00,30.1,29.1,00.0,39.2,31.8,10.8,0000.0,0013.03,0003.91,0002.46
2021-10-19 06:14:00,,0817.8,5.00,0.00,30.1,29.1,00.0,39.2,31.8,10.8,0000.0,0013.32,0003.94,0002.48
2021-10-19 06:15:00,,0817.8,4.98,0.00,30.1,29.1,00.0,39.2,31.8,10.8,0000.0,0013.00,0003.97,0002.51
2021-10-19 06:16:00,,0817.8,5.01,0.00,30.1,29.1,00.0,39.2,31.8,10.8,0000.0,0012.71,0003.96,0002.50
2021-10-19 06:17:00,,0817.7,4.99,0.00,30.1,29.1,00.0,39.2,31.8,10.8,0000.0,0012.80,0004.00,0002.51
2021-10-19 06:18:00,,0817.7,4.98,0.00,30.1,29.1,00.0,39.2,31.8,10.8,0000.0,0012.97,0004.02,0002.54
2021-10-19 06:19:00,,0817.7,5.00,0.00,30.1,29.1,00.0,39.2,31.8,10.8,0000.0,0013.10,0004.04,0002.55
2021-10-19 06:20:00,,0817.7,4.99,0.00,30.1,29.1,00.0,39.2,31.8,10.8,0000.0,0012.43,0004.05,0002.56
2021-10-19 06:21:00,,0817.7,5.02,0.00,30.1,29.0,00.0,39.2,31.7,10.8,0000.0,0011.52,0004.04,0002.53
2021-10-19 06:22:00,,0817.8,4.99,0.00,30.0,29.0,00.0,39.2,31.8,10.8,0000.0,0011.32,0004.01,0002.52
2021-10-19 06:23:00,,0817.8,5.00,0.00,30.1,29.0,00.0,39.2,31.8,10.8,0000.0,0011.51,0004.04,0002.52
2021-10-19 06:24:00,,0817.8,5.01,0.00,30.0,29.0,00.0,39.2,31.8,10.8,0000.0,0011.79,0004.09,0002.52
2021-10-19 06:25:00,,0817.8,5.00,0.00,30.0,29.0,00.0,39.2,31.8,10.8,0000.0,0011.99,0004.07,0002.50
2021-10-19 06:26:00,,0817.8,4.99,0.00,30.1,29.0,00.0,39.2,31.8,10.7,0000.0,0012.41,0004.09,0002.50
2021-10-19 06:27:00,,0817.8,5.00,0.00,30.1,29.0,00.0,39.2,31.7,10.7,0000.0,0012.48,0004.09,0002.51
2021-10-19 06:28:00,,0817.8,5.00,0.00,30.0,29.0,00.0,39.2,31.7,10.7,0000.0,0012.38,0004.09,0002.52
2021-10-19 06:29:00,,0817.9,4.99,0.00,30.0,29.0,00.0,39.2,31.7,10.7,0000.0,0012.30,0004.06,0002.50
2021-10-19 06:30:00,,0817.9,5.01,0.00,30.0,29.0,00.0,39.2,31.8,10.7,0000.0,0011.98,0004.03,0002.49
2021-10-19 06:31:00,,0818.0,5.00,0.00,30.1,29.0,00.0,39.2,31.7,10.8,0000.0,0012.07,0004.01,0002.50
2021-10-19 06:32:00,,0818.0,5.01,0.00,30.1,29.1,00.0,39.2,31.8,10.8,0000.0,0012.44,0004.02,0002.51
2021-10-19 06:33:00,,0818.0,4.99,0.00,30.1,29.1,00.0,39.2,31.7,10.9,0000.0,0013.69,0004.08,0002.52
2021-10-19 06:34:00,,0818.0,5.01,0.00,30.1,29.1,00.0,39.2,31.8,11.1,0000.0,0014.84,0004.17,0002.54
2021-10-19 06:35:00,,0817.9,5.00,0.00,30.0,29.1,00.0,39.2,31.7,11.2,0000.0,0015.93,0004.16,0002.54
2021-10-19 06:36:00,,0818.0,4.99,0.00,30.1,29.1,00.0,39.2,31.7,11.2,0000.0,0016.48,0004.18,0002.55
2021-10-19 06:37:00,,0818.0,5.01,0.00,30.1,29.1,00.0,39.2,31.8,11.1,0000.0,0016.20,0004.18,0002.55
2021-10-19 06:38:00,,0818.0,5.00,0.00,30.1,29.1,00.0,39.2,31.8,11.0,0000.0,0016.36,0004.19,0002.53
2021-10-19 06:39:00,,0818.0,5.01,0.00,30.1,29.1,00.0,39.2,31.8,11.1,0000.0,0016.57,0004.21,0002.54
2021-10-19 06:40:00,,0818.0,5.00,0.00,30.1,29.0,00.0,39.2,31.7,11.1,0000.0,0017.02,0004.29,0002.56
2021-10-19 06:41:00,,0817.9,5.00,0.00,30.0,29.1,00.0,39.2,31.7,11.1,0000.0,0017.16,0004.35,0002.59
2021-10-19 06:42:00,,0817.9,5.01,0.00,30.0,29.1,00.0,39.2,31.7,11.2,0000.0,0016.75,0004.38,0002.59
2021-10-19 06:43:00,,0817.9,4.99,0.00,30.0,29.1,00.0,39.2,31.7,11.3,0000.0,0016.72,0004.39,0002.60
2021-10-19 06:44:00,,0817.8,5.00,0.00,30.0,29.1,00.0,39.2,31.8,11.3,0000.0,0015.87,0004.29,0002.60
2021-10-19 06:45:00,,0817.8,5.01,0.00,30.0,29.1,00.0,39.2,31.8,11.3,0000.0,0014.99,0004.24,0002.61
2021-10-19 06:46:00,,0817.8,5.00,0.00,30.0,29.1,00.0,39.2,31.8,11.4,0000.0,0013.59,0004.24,0002.65
2021-10-19 06:47:00,,0817.7,5.00,0.00,30.0,29.1,00.0,39.2,31.7,11.4,0000.0,0013.42,0004.27,0002.69
2021-10-19 06:48:00,,0817.7,5.00,0.00,30.0,29.1,00.0,39.2,31.7,11.4,0000.0,0014.14,0004.26,0002.73
2021-10-19 06:49:00,,0817.7,4.98,0.00,30.0,29.1,00.0,39.2,31.8,11.4,0000.0,0014.07,0004.32,0002.79
2021-10-19 06:50:00,,0817.7,5.01,0.00,30.0,29.0,00.0,39.2,31.7,11.3,0000.0,0013.90,0004.33,0002.81
2021-10-19 06:51:00,,0817.7,4.99,0.00,30.0,29.0,00.0,39.2,31.8,11.3,0000.0,0014.04,0004.32,0002.82
2021-10-19 06:52:00,,0817.6,5.00,0.00,30.0,29.0,00.0,39.2,31.7,11.3,0000.0,0014.23,0004.33,0002.84
2021-10-19 06:53:00,,0817.7,5.00,0.00,30.0,29.0,00.0,39.2,31.7,11.3,0000.0,0014.32,0004.31,0002.85
2021-10-19 06:54:00,,0817.7,5.01,0.00,30.0,29.0,00.0,39.2,31.7,11.3,0000.0,0013.87,0004.30,0002.85
2021-10-19 06:55:00,,0817.8,5.00,0.00,30.0,29.0,00.0,39.2,31.7,11.3,0000.0,0013.87,0004.36,0002.87
2021-10-19 06:56:00,,0817.8,5.00,0.00,30.0,29.0,00.0,39.2,31.7,11.3,0000.0,0014.37,0004.42,0002.86
2021-10-19 06:57:00,,0817.8,5.01,0.00,30.0,29.0,00.0,39.2,31.7,11.3,0000.0,0014.27,0004.41,0002.83
2021-10-19 06:58:00,,0817.9,4.99,0.00,30.0,29.0,00.0,39.2,31.7,11.3,0000.0,0013.18,0004.38,0002.80
2021-10-19 06:59:00,,0817.8,4.99,0.00,30.0,29.0,00.0,39.2,31.7,11.3,0000.0,0012.16,0004.38,0002.79
